Theta_e
329 325 323 322 309 310 303 305 312 311 312 317 320 317 316 319 315 311 336 339 339 341 345 347 348 349 349 348 348 348 346 343 342 341 340 339 339 339 340 342 343 341 340 339 339 337 335 335 336
326 321 323 317 306 300 302 307 308 313 317 320 320 319 318 317 326 328 333 338 341 341 344 345 346 348 349 347 347 347 346 344 341 340 339 339 338 338 340 342 342 341 340 337 336 336 335 334 335
324 319 316 311 306 300 302 307 311 316 319 319 319 322 320 318 327 330 337 340 341 340 343 345 345 347 348 348 348 347 346 344 341 339 337 338 338 338 340 341 340 341 340 337 336 336 335 334 334
321 323 317 308 303 304 304 309 313 316 315 319 321 316 324 329 328 335 339 340 339 340 342 343 345 347 347 347 347 347 346 344 342 339 337 337 337 337 340 340 339 341 338 336 335 335 334 334 334
324 319 311 307 304 305 308 310 316 315 314 316 319 314 319 329 334 338 335 339 337 338 341 344 343 345 346 347 347 347 345 344 343 339 337 335 336 338 339 340 338 337 337 335 334 333 334 334 333
319 317 308 305 305 307 310 312 317 316 314 317 316 316 320 330 333 336 338 338 338 337 340 343 337 340 343 344 345 345 345 344 342 339 337 336 335 335 335 337 336 336 337 336 335 333 333 333 332
316 314 307 304 304 305 308 314 314 314 313 315 320 313 322 326 332 336 336 337 337 337 337 340 342 339 336 340 341 342 343 343 342 341 339 338 337 337 336 337 337 336 336 336 335 333 332 332 332
320 315 307 307 305 303 308 312 311 313 313 321 324 312 315 328 331 334 334 334 334 335 335 337 341 342 343 342 333 335 336 338 339 338 335 333 333 333 333 332 335 335 334 334 333 333 332 331 330
319 310 306 307 306 305 308 309 311 316 316 320 323 320 324 332 331 329 328 328 329 331 332 334 338 339 339 339 333 330 330 331 331 332 328 329 334 332 331 329 332 334 334 332 331 331 332 330 328
315 308 307 313 313 309 313 307 309 312 314 316 319 324 328 328 327 324 324 324 325 326 330 330 334 336 336 333 336 337 336 337 337 338 337 336 335 333 330 326 327 330 330 331 329 327 326 326 329
314 307 311 313 315 316 314 307 308 310 310 315 315 321 323 324 325 324 326 323 322 326 329 329 330 334 335 334 335 335 334 336 335 337 337 337 334 333 332 330 328 329 323 328 327 327 329 327 329
310 314 313 315 317 315 314 315 308 308 312 312 314 322 324 323 324 325 326 326 323 325 328 329 329 330 332 333 333 332 332 335 333 334 335 335 333 333 331 329 328 328 328 327 328 329 329 328 327
310 311 314 316 315 314 314 314 314 313 316 316 314 321 323 325 325 329 329 329 328 325 327 329 330 330 330 331 331 331 331 332 333 332 333 333 331 331 331 330 328 327 326 326 326 326 325 326 325
310 312 312 314 315 314 311 313 311 316 312 310 314 317 323 324 326 328 329 328 328 326 325 329 329 330 329 329 330 329 330 329 330 331 331 331 331 330 329 328 328 326 326 326 326 325 324 323 324
310 305 309 310 312 311 312 308 306 316 314 314 313 316 320 324 326 327 329 328 329 328 326 326 327 330 329 328 329 329 328 327 327 328 331 330 330 328 327 327 327 327 327 326 327 326 324 323 322
305 306 299 306 309 310 310 301 310 315 313 314 316 316 318 321 325 327 329 330 331 330 328 327 326 327 329 328 328 329 328 328 326 326 327 329 329 329 329 327 325 326 327 327 326 325 324 323 322
303 296 298 301 309 308 307 302 309 315 312 313 316 316 316 319 323 326 329 330 331 331 329 327 327 327 329 329 328 328 328 327 327 326 326 328 329 329 329 328 328 327 325 325 325 324 323 321 321
295 296 298 298 304 306 304 304 307 311 312 313 315 316 316 317 320 325 327 329 331 332 332 330 328 328 328 329 329 328 328 328 328 327 326 327 328 329 329 328 328 327 325 325 324 323 323 322 322
299 298 297 300 305 304 303 303 305 309 310 309 311 312 314 315 319 323 327 328 327 330 330 330 329 329 328 326 325 325 324 326 327 328 328 327 327 327 329 329 328 327 325 326 325 324 322 322 323
299 297 297 301 304 303 302 302 306 308 309 311 311 312 314 314 314 318 323 326 326 326 328 329 330 330 329 328 327 326 325 326 328 329 328 328 328 329 330 330 329 329 327 327 327 324 323 323 325
297 295 296 295 300 302 300 298 301 305 308 309 309 311 312 315 314 315 318 322 326 325 326 327 329 330 330 329 329 328 329 328 327 328 328 329 329 329 330 330 330 330 329 327 327 326 324 322 325
293 301 299 297 294 291 300 289 298 301 302 305 307 309 309 312 315 316 316 318 323 326 329 328 329 330 330 331 329 328 326 324 327 329 330 330 330 330 330 330 330 330 330 328 329 329 327 325 321
297 302 298 298 295 294 293 290 295 301 300 302 306 309 310 312 314 315 316 317 320 325 328 330 329 329 330 330 330 329 327 329 330 330 331 331 331 331 330 331 331 330 331 330 330 328 327 327 324
302 298 298 297 294 285 293 291 293 297 300 303 306 308 311 313 314 315 319 318 317 324 327 329 327 327 329 329 330 329 328 329 329 329 329 330 330 330 330 331 330 331 330 330 330 330 327 326 325
299 294 285 284 284 284 295 291 293 301 303 304 305 308 311 312 313 314 315 317 317 317 323 327 327 326 328 329 329 330 330 330 329 330 330 328 329 328 328 329 329 328 329 330 329 326 325 324 323
294 292 287 283 283 287 292 287 294 303 305 306 306 307 309 309 310 311 314 316 318 317 317 323 325 325 326 328 328 330 331 330 330 330 330 329 329 329 330 329 329 329 329 328 326 324 323 323 322
293 289 296 287 282 284 289 294 300 302 302 304 305 306 308 310 309 309 309 312 313 315 314 319 322 324 326 327 327 328 329 330 329 330 330 329 330 329 329 329 328 329 328 328 328 322 322 323 322
295 298 287 287 282 281 287 290 293 298 300 304 304 304 306 307 308 309 310 309 309 311 313 316 321 323 325 326 327 326 328 329 329 329 328 328 328 328 327 327 327 327 327 327 327 323 323 322 322
291 290 290 289 287 284 283 289 299 300 301 302 304 306 307 308 305 306 308 308 306 306 308 311 315 319 322 324 325 325 326 326 327 327 327 327 327 327 326 326 326 326 326 326 325 323 322 320 320
296 292 292 285 284 286 285 289 297 300 302 301 301 302 303 304 304 303 305 304 299 302 304 307 312 315 320 322 323 323 324 324 324 325 325 326 326 326 325 325 324 324 323 323 321 319 318 319 318
Wind_Speed
14 12 4 2 3 1 2 3 1 8 5 1 5 3 2 4 5 5 5 6 9 10 9 9 9 11 14 14 13 14 14 13 13 13 13 13 13 14 13 14 15 15 16 15 15 16 16 16 15
13 7 2 1 3 3 5 3 5 6 4 5 5 2 2 2 2 5 9 6 11 9 8 9 7 10 14 14 14 13 14 13 14 13 13 12 13 13 11 14 16 13 15 15 15 15 15 14 14
8 4 4 3 1 3 3 4 5 4 7 6 4 2 1 2 1 8 3 12 10 10 8 9 7 9 11 13 14 13 13 13 13 12 12 12 13 12 10 14 13 12 15 15 13 14 14 14 14
6 0 3 4 4 2 3 1 7 10 3 3 1 3 2 3 1 6 10 12 11 9 9 8 6 9 10 11 13 13 14 14 14 13 13 13 12 11 12 13 12 12 15 13 13 13 13 13 13
2 1 3 3 3 2 2 1 9 11 5 4 4 3 1 3 2 8 11 11 11 9 9 11 7 7 10 11 13 13 14 14 14 13 12 12 11 10 9 13 14 12 12 13 13 13 12 12 12
2 2 5 6 3 2 3 2 8 8 4 4 4 3 4 2 6 9 11 10 9 9 8 9 9 9 9 10 12 12 13 14 15 14 13 12 11 11 9 11 12 10 10 12 13 12 12 11 11
3 2 5 4 7 4 3 5 7 8 5 6 1 3 3 5 7 12 10 9 8 7 7 8 10 10 7 10 11 12 12 12 12 12 12 10 10 10 9 7 9 10 11 11 11 10 10 10 10
1 4 5 4 4 3 3 4 1 6 4 3 4 3 2 10 12 12 9 8 8 7 8 8 9 10 11 11 7 6 10 9 9 10 11 10 9 9 8 6 7 10 10 10 9 8 9 9 9
1 6 8 9 6 1 2 4 2 0 3 4 6 2 3 15 16 11 10 8 8 6 8 8 8 9 8 9 8 9 11 9 8 10 9 10 7 8 8 7 7 8 8 8 8 7 7 8 7
6 7 11 8 6 5 2 3 3 4 6 6 6 4 7 15 16 14 13 13 13 12 9 9 9 9 9 7 10 8 8 7 6 8 10 5 7 5 6 6 6 6 6 6 6 6 6 6 3
2 10 3 6 9 7 6 5 2 4 8 8 6 10 12 14 15 15 15 14 15 15 11 11 11 11 11 8 6 5 5 5 6 9 8 6 4 5 4 5 5 5 4 4 4 5 2 2 1
6 8 5 4 4 5 7 6 5 7 6 2 4 5 15 17 17 18 17 15 14 15 14 13 13 11 11 7 7 7 6 7 6 7 9 6 5 6 5 4 5 4 4 4 3 2 2 3 3
8 8 7 6 8 6 4 8 5 9 11 7 1 9 15 16 18 17 15 14 14 15 14 14 13 11 10 10 8 7 7 7 8 7 8 7 6 5 5 5 4 4 4 4 3 3 3 3 4
3 11 8 6 12 6 8 9 8 8 4 3 7 11 13 16 18 16 17 16 16 15 15 14 14 14 12 11 10 8 7 7 7 7 8 9 6 6 6 5 5 5 4 4 4 3 3 3 3
5 10 8 12 10 7 5 13 15 15 8 9 8 10 12 15 15 20 19 18 18 14 15 16 14 14 13 13 10 8 7 7 7 7 9 10 8 7 7 5 6 6 5 5 4 4 4 4 4
7 9 17 13 11 7 10 20 16 13 12 15 14 12 12 16 18 16 17 17 17 16 17 16 13 14 15 13 10 8 8 8 7 7 8 11 10 9 8 6 6 5 5 5 5 5 5 5 5
11 18 22 20 10 9 16 16 19 14 12 15 15 16 13 13 16 18 18 18 18 18 16 17 17 17 17 14 11 10 10 9 8 8 8 11 11 10 8 7 6 6 6 6 5 5 6 5 5
19 21 18 15 11 12 16 18 17 7 13 19 18 16 15 15 19 18 19 18 17 17 17 17 15 17 16 12 11 9 9 9 9 9 10 12 10 12 9 8 8 7 6 6 6 7 6 6 5
16 14 18 15 11 10 19 20 22 18 16 15 14 13 18 17 19 15 17 18 17 17 18 19 17 17 13 12 11 11 11 10 10 10 13 13 12 12 12 9 9 9 9 9 9 7 8 6 6
13 16 15 10 12 11 17 19 21 20 20 19 21 20 19 19 18 16 16 17 19 19 19 19 19 19 16 12 11 10 11 11 11 10 12 14 14 13 12 12 10 11 9 10 10 9 7 7 6
19 18 17 12 4 12 12 22 24 24 22 23 23 23 23 23 19 18 17 18 19 20 20 20 21 22 19 17 11 10 7 7 9 11 11 13 15 14 15 14 12 11 10 9 10 10 12 9 7
19 25 23 13 6 13 9 16 20 16 17 24 25 25 26 26 24 22 19 19 19 19 19 22 21 22 19 20 15 17 13 13 12 11 11 11 16 16 16 15 14 13 10 12 10 10 11 10 9
16 17 19 25 18 12 18 12 16 20 26 25 23 23 25 24 23 25 23 19 20 18 19 20 22 21 19 19 19 14 16 12 11 11 13 14 13 15 16 16 15 14 10 12 13 11 13 10 10
5 5 13 14 14 13 26 19 17 22 24 19 20 23 22 22 23 23 23 20 19 17 17 17 20 20 20 20 21 21 21 18 12 13 11 10 10 10 14 15 14 15 13 14 12 13 14 12 11
11 7 4 10 9 12 18 17 23 14 21 23 20 20 20 18 19 21 23 20 19 18 18 17 20 21 21 21 22 22 22 20 19 16 12 12 10 9 13 15 14 12 14 13 12 11 10 12 10
23 9 4 6 7 17 5 11 13 19 24 27 20 17 15 12 12 17 19 17 19 17 18 20 19 21 21 22 23 20 21 13 13 16 12 11 11 11 12 13 14 14 13 13 11 8 8 8 8
6 15 15 7 0 2 4 17 12 12 12 17 22 19 19 19 16 14 15 16 17 16 17 19 19 19 20 21 19 20 19 18 16 18 15 11 12 10 12 12 12 13 12 13 12 9 9 9 9
13 7 4 6 6 11 14 18 12 9 18 18 17 16 16 12 15 13 16 14 13 15 16 18 20 20 19 19 17 16 17 17 16 15 16 14 12 12 11 12 12 11 11 12 12 9 9 8 7
12 9 5 0 4 3 5 10 4 16 16 18 18 14 14 13 9 10 14 11 10 10 13 15 15 15 15 15 15 15 14 15 14 14 13 13 12 12 12 12 11 11 11 11 10 10 8 9 9
17 19 20 5 5 3 2 10 2 4 6 8 11 9 7 9 10 8 10 9 7 9 11 13 13 14 14 15 14 14 14 14 14 15 14 13 12 11 12 11 10 9 9 9 9 8 6 8 8
Wind_Direction
334 326 296 245 241 295 92 132 359 147 177 98 141 214 327 5 343 26 131 119 141 135 136 139 115 121 120 121 117 111 108 107 100 98 98 101 102 104 102 89 89 91 92 91 89 90 91 89 92
331 324 268 313 288 319 83 129 197 148 107 133 147 154 212 75 78 101 147 154 149 141 140 135 123 130 125 127 123 120 118 113 106 102 105 106 105 106 102 89 84 90 103 93 95 96 92 95 94
340 329 313 352 0 11 16 187 160 129 129 171 163 327 11 58 120 156 98 150 150 141 141 120 135 135 129 131 131 128 121 112 109 103 107 100 101 109 99 94 94 97 97 95 97 97 96 97 96
343 253 148 298 331 70 326 118 155 154 170 203 159 173 157 339 147 152 146 153 152 145 144 128 138 133 130 130 134 132 125 119 116 112 111 109 105 107 96 102 93 94 104 95 97 101 99 98 98
20 293 302 294 316 319 290 307 173 173 144 181 204 154 145 116 137 138 154 163 153 151 149 143 142 137 134 134 136 137 130 124 118 116 111 116 112 103 100 105 93 84 94 102 101 102 103 105 104
136 299 267 279 306 312 287 197 173 188 155 145 215 179 147 119 157 157 165 162 159 150 159 144 136 148 144 142 135 135 132 130 129 129 127 123 117 116 114 86 104 111 110 106 101 108 112 114 111
161 235 291 287 296 287 349 163 191 193 178 196 146 217 108 172 170 164 167 158 159 155 165 160 147 145 137 139 130 130 126 134 135 135 128 117 108 112 119 118 120 112 104 109 116 117 120 119 115
120 189 232 237 279 312 30 204 356 216 188 89 198 224 189 169 162 158 156 163 167 171 169 175 152 155 152 145 107 103 117 113 133 137 128 125 116 106 97 105 114 119 117 117 114 122 121 119 112
117 231 208 234 210 145 57 239 117 112 198 202 191 264 42 140 152 155 157 168 172 193 186 177 174 163 156 153 130 134 115 112 113 127 122 146 138 142 157 74 112 125 125 116 109 106 114 112 107
235 241 233 184 187 178 151 239 295 225 197 217 203 157 129 155 164 170 179 183 185 186 193 185 185 179 175 168 169 161 140 156 163 163 166 157 152 144 130 117 103 101 109 104 100 102 129 210 155
237 239 246 193 173 174 174 181 188 238 232 240 246 193 166 174 182 183 197 196 190 184 188 194 190 189 191 184 185 180 171 179 175 177 175 167 152 161 169 155 164 163 184 171 173 172 186 166 200
231 251 248 191 188 185 198 151 187 216 253 40 317 196 172 186 193 196 198 199 194 190 191 194 195 190 194 194 196 191 188 189 189 188 182 179 183 189 184 188 179 186 191 181 198 190 191 194 205
233 243 230 216 203 228 204 208 212 230 243 248 221 188 192 197 203 208 203 199 201 200 192 204 199 199 194 199 195 194 200 197 195 192 191 195 198 197 197 196 197 198 190 204 204 205 214 219 232
304 240 244 239 238 224 244 241 192 216 161 205 213 214 208 210 204 206 209 202 200 203 200 199 203 203 198 203 202 199 201 196 196 201 201 204 206 200 202 201 207 208 211 207 222 226 233 241 245
250 262 246 241 243 247 236 245 234 233 191 236 226 231 217 215 209 212 209 212 201 200 200 199 199 210 204 205 203 204 204 200 203 202 208 206 206 206 208 207 211 216 209 224 229 228 239 248 243
227 241 248 236 217 231 223 254 242 232 218 232 236 230 220 215 218 216 214 213 210 204 202 199 192 203 206 206 203 204 206 206 208 207 204 209 208 209 209 212 215 213 214 218 225 232 240 248 252
217 237 230 236 211 241 218 252 248 231 217 234 232 234 225 221 222 221 216 211 211 211 201 203 200 199 204 209 208 207 208 210 212 214 209 206 213 214 219 219 219 209 218 220 227 230 242 250 246
224 227 238 240 199 221 243 247 254 242 252 244 239 238 234 228 224 219 215 215 211 213 211 206 206 206 202 203 211 211 210 214 215 216 217 212 211 213 218 225 221 210 213 223 221 234 227 252 267
259 246 243 235 242 232 242 244 251 250 239 244 244 231 243 237 239 215 212 211 210 213 213 210 208 209 201 203 204 209 211 211 213 220 220 222 217 212 210 220 222 215 221 222 224 230 240 239 243
245 243 241 254 239 234 259 255 261 252 248 248 254 249 242 243 236 228 214 208 207 209 212 213 211 208 205 204 204 208 209 219 220 215 216 220 221 219 219 221 221 220 223 226 226 221 233 244 229
227 237 232 244 233 244 273 267 260 258 250 250 249 250 254 244 238 228 217 211 209 211 207 210 211 210 206 207 204 208 213 213 210 219 216 214 217 218 219 224 226 224 224 229 226 222 225 240 228
230 219 235 236 245 253 214 278 262 263 259 243 245 238 239 239 234 238 226 217 212 213 207 209 213 214 210 202 203 204 205 208 217 218 216 216 213 216 217 222 222 226 223 229 228 225 229 230 240
242 227 226 234 237 263 252 265 266 253 258 247 244 239 241 236 232 230 229 227 218 210 207 205 207 211 208 203 204 202 211 219 221 217 218 214 214 219 220 221 224 227 226 230 229 222 227 231 236
253 239 229 231 233 230 238 221 250 244 253 259 252 242 240 238 234 234 233 225 226 215 210 209 203 206 204 203 204 206 212 216 211 214 209 212 214 214 221 221 225 228 229 230 230 231 230 229 233
203 189 221 203 204 229 227 228 239 264 243 252 254 253 248 242 237 233 232 225 223 213 207 204 205 206 203 204 205 210 215 215 216 213 210 211 212 212 216 215 217 224 228 231 233 231 224 230 235
221 218 212 240 182 230 129 233 238 243 243 259 251 255 261 255 241 243 236 238 235 221 215 209 207 215 204 203 209 211 215 218 219 219 214 219 216 217 217 208 216 220 225 228 229 226 223 226 224
165 215 230 291 30 309 212 257 276 235 243 248 253 256 254 255 244 230 228 230 233 223 217 215 215 214 213 208 204 210 211 211 212 218 217 218 221 221 215 209 212 218 221 224 223 227 223 216 226
216 167 162 189 248 242 212 249 247 213 231 239 247 246 250 251 246 241 242 229 226 225 223 214 212 213 213 210 206 207 210 209 212 214 215 214 216 217 211 210 212 214 218 220 221 224 226 220 224
186 209 198 288 199 259 263 239 252 221 214 236 247 256 266 266 255 252 257 241 227 230 227 221 214 213 215 207 206 203 205 211 213 217 215 213 210 210 211 212 210 213 216 216 218 221 220 213 224
204 215 210 230 207 248 330 266 106 307 321 288 283 272 266 275 277 261 257 234 203 220 228 219 207 206 206 202 199 200 197 201 206 210 212 209 209 204 209 209 211 212 214 215 208 210 203 214 222